When you browse on this site, cookies collect data to enhance your experience and personalize the content and advertising you see.
Visit our Privacy Policy to learn more. By continuing to use the site, you agree to this use of cookies and data.
  • In Hungary
  • List of Countries
  • For 7 days
  • Water Temperature
  • Satellite Maps
  • Weather Map
  • News
  • Weather Widgets
  • user-avatar
    Login

    Hourly Weather Santa Ana Huiloac

    Today, 17 February, Sunday

    Time Temperature Precipitation Wind Pressure Humidity
    00:00 +15°C° 0 mm 1 mps 564 mmHg 38%
    01:00 +14°C° 0 mm 1 mps 563 mmHg 37%
    02:00 +14°C° 0 mm 1 mps 563 mmHg 37%
    03:00 +13°C° 0 mm 1 mps 563 mmHg 38%
    04:00 +13°C° 0 mm 1 mps 563 mmHg 40%
    05:00 +12°C° 0 mm 1 mps 563 mmHg 27%
    06:00 +14°C° 0 mm 1 mps 564 mmHg 28%
    07:00 +15°C° 0 mm 2 mps 565 mmHg 30%
    08:00 +16°C° 0 mm 2 mps 566 mmHg 32%
    09:00 +19°C° 0 mm 2 mps 566 mmHg 28%
    10:00 +21°C° 0 mm 3 mps 567 mmHg 25%
    11:00 +24°C° 0 mm 3 mps 568 mmHg 22%
    12:00 +23°C° 0 mm 4 mps 568 mmHg 21%
    13:00 +25°C° 0 mm 4 mps 568 mmHg 20%
    14:00 +26°C° 0 mm 4 mps 567 mmHg 19%
    15:00 +25°C° 0 mm 4 mps 567 mmHg 22%
    16:00 +23°C° 0 mm 4 mps 567 mmHg 25%
    17:00 +21°C° 0 mm 4 mps 566 mmHg 28%
    18:00 +20°C° 0 mm 3 mps 566 mmHg 32%
    19:00 +18°C° 0 mm 2 mps 566 mmHg 37%
    20:00 +16°C° 0 mm 1 mps 566 mmHg 41%
    21:00 +16°C° 0 mm 1 mps 566 mmHg 44%
    22:00 +15°C° 0 mm 1 mps 566 mmHg 46%
    23:00 +13°C° 0 mm 0 mps 566 mmHg 49%

    Tomorrow, 18 February, Monday

    Time Temperature Precipitation Wind Pressure Humidity
    00:00 +13°C° 0 mm 0 mps 565 mmHg 52%
    01:00 +12°C° 0 mm 0 mps 565 mmHg 55%
    02:00 +12°C° 0 mm 0 mps 565 mmHg 57%
    03:00 +11°C° 0 mm 0 mps 564 mmHg 59%
    04:00 +11°C° 0 mm 0 mps 564 mmHg 61%
    05:00 +11°C° 0 mm 0 mps 564 mmHg 63%
    06:00 +12°C° 0 mm 0 mps 565 mmHg 57%
    07:00 +14°C° 0 mm 0 mps 567 mmHg 50%
    08:00 +16°C° 0 mm 0 mps 568 mmHg 44%
    09:00 +19°C° 0 mm 2 mps 569 mmHg 37%
    10:00 +21°C° 0 mm 3 mps 570 mmHg 30%
    11:00 +23°C° 0 mm 4 mps 570 mmHg 23%
    12:00 +23°C° 0 mm 4 mps 570 mmHg 23%
    13:00 +25°C° 0 mm 5 mps 570 mmHg 23%
    14:00 +24°C° 0 mm 6 mps 569 mmHg 22%
    15:00 +23°C° 0 mm 5 mps 568 mmHg 25%
    16:00 +22°C° 0 mm 5 mps 568 mmHg 28%
    17:00 +20°C° 0 mm 5 mps 567 mmHg 32%
    18:00 +19°C° 0.1 mm 3 mps 567 mmHg 35%
    19:00 +17°C° 0.1 mm 2 mps 567 mmHg 38%
    20:00 +16°C° 0.1 mm 1 mps 567 mmHg 41%
    21:00 +15°C° 0.1 mm 1 mps 566 mmHg 45%
    22:00 +15°C° 0.1 mm 1 mps 566 mmHg 48%
    23:00 +14°C° 0.1 mm 1 mps 566 mmHg 52%

    Day after tomorrow, 19 February, Tuesday

    Time Temperature Precipitation Wind Pressure Humidity
    00:00 +14°C° 0 mm 1 mps 566 mmHg 59%
    01:00 +13°C° 0 mm 1 mps 565 mmHg 67%
    02:00 +12°C° 0 mm 1 mps 564 mmHg 74%
    03:00 +12°C° 0 mm 1 mps 564 mmHg 73%
    04:00 +11°C° 0 mm 1 mps 564 mmHg 72%
    05:00 +11°C° 0 mm 1 mps 564 mmHg 71%
    06:00 +12°C° 0 mm 2 mps 565 mmHg 64%
    07:00 +14°C° 0 mm 2 mps 566 mmHg 56%
    08:00 +14°C° 0 mm 3 mps 567 mmHg 48%
    09:00 +17°C° 0 mm 4 mps 567 mmHg 42%
    10:00 +19°C° 0 mm 5 mps 568 mmHg 35%
    11:00 +21°C° 0 mm 6 mps 569 mmHg 28%
    12:00 +21°C° 0 mm 6 mps 568 mmHg 25%
    13:00 +22°C° 0 mm 7 mps 567 mmHg 22%
    14:00 +22°C° 0 mm 7 mps 567 mmHg 18%
    15:00 +21°C° 0 mm 6 mps 566 mmHg 20%
    16:00 +20°C° 0 mm 6 mps 566 mmHg 22%
    17:00 +19°C° 0 mm 5 mps 565 mmHg 23%
    18:00 +17°C° 0 mm 4 mps 565 mmHg 27%
    19:00 +16°C° 0 mm 3 mps 565 mmHg 30%
    20:00 +14°C° 0 mm 2 mps 564 mmHg 33%
    21:00 +14°C° 0 mm 2 mps 564 mmHg 35%
    22:00 +13°C° 0 mm 1 mps 564 mmHg 37%
    23:00 +13°C° 0 mm 1 mps 564 mmHg 40%

    20 February, Wednesday

    Time Temperature Precipitation Wind Pressure Humidity
    00:00 +12°C° 0 mm 1 mps 563 mmHg 42%
    01:00 +12°C° 0 mm 1 mps 562 mmHg 44%
    02:00 +11°C° 0 mm 1 mps 562 mmHg 46%
    03:00 +11°C° 0 mm 1 mps 562 mmHg 47%
    04:00 +10°C° 0 mm 1 mps 561 mmHg 48%
    05:00 +10°C° 0 mm 1 mps 561 mmHg 49%
    06:00 +11°C° 0 mm 1 mps 562 mmHg 45%
    07:00 +13°C° 0 mm 1 mps 563 mmHg 42%
    08:00 +14°C° 0 mm 2 mps 565 mmHg 38%
    09:00 +16°C° 0 mm 2 mps 565 mmHg 33%
    10:00 +18°C° 0 mm 3 mps 566 mmHg 28%
    11:00 +20°C° 0 mm 4 mps 567 mmHg 23%
    12:00 +21°C° 0 mm 5 mps 567 mmHg 21%
    13:00 +21°C° 0 mm 5 mps 566 mmHg 20%
    14:00 +22°C° 0 mm 6 mps 566 mmHg 18%
    15:00 +21°C° 0 mm 6 mps 565 mmHg 20%
    16:00 +19°C° 0 mm 6 mps 565 mmHg 22%
    17:00 +17°C° 0 mm 6 mps 564 mmHg 24%
    18:00 +16°C° 0 mm 5 mps 564 mmHg 27%
    19:00 +14°C° 0 mm 4 mps 564 mmHg 30%
    20:00 +13°C° 0 mm 3 mps 564 mmHg 33%
    21:00 +12°C° 0 mm 3 mps 564 mmHg 34%
    22:00 +13°C° 0 mm 2 mps 564 mmHg 36%
    23:00 +12°C° 0 mm 2 mps 563 mmHg 37%

    21 February, Thursday

    Time Temperature Precipitation Wind Pressure Humidity
    00:00 +10°C° 0 mm 2 mps 563 mmHg 39%
    01:00 +10°C° 0 mm 2 mps 562 mmHg 40%
    02:00 +9°C° 0 mm 2 mps 562 mmHg 41%
    03:00 +9°C° 0 mm 2 mps 562 mmHg 43%
    04:00 +9°C° 0 mm 1 mps 562 mmHg 44%
    05:00 +9°C° 0 mm 1 mps 562 mmHg 46%
    06:00 +11°C° 0 mm 1 mps 563 mmHg 42%
    07:00 +12°C° 0 mm 2 mps 564 mmHg 39%
    08:00 +14°C° 0 mm 2 mps 565 mmHg 35%
    09:00 +16°C° 0 mm 3 mps 566 mmHg 30%
    10:00 +18°C° 0 mm 3 mps 567 mmHg 25%
    11:00 +21°C° 0 mm 4 mps 568 mmHg 20%
    12:00 +21°C° 0 mm 5 mps 567 mmHg 19%
    13:00 +22°C° 0 mm 5 mps 567 mmHg 17%
    14:00 +23°C° 0 mm 5 mps 567 mmHg 16%
    15:00 +22°C° 0 mm 5 mps 566 mmHg 17%
    16:00 +20°C° 0 mm 5 mps 566 mmHg 19%
    17:00 +19°C° 0 mm 5 mps 565 mmHg 20%
    18:00 +18°C° 0 mm 4 mps 565 mmHg 24%
    19:00 +16°C° 0 mm 3 mps 565 mmHg 28%
    20:00 +14°C° 0 mm 2 mps 564 mmHg 32%
    21:00 +13°C° 0 mm 1 mps 564 mmHg 34%
    22:00 +13°C° 0 mm 1 mps 564 mmHg 36%
    23:00 +11°C° 0 mm 0 mps 564 mmHg 38%

    22 February, Friday

    Time Temperature Precipitation Wind Pressure Humidity
    00:00 +11°C° 0 mm 0 mps 563 mmHg 39%
    01:00 +10°C° 0 mm 0 mps 563 mmHg 40%
    02:00 +10°C° 0 mm 0 mps 563 mmHg 41%
    03:00 +9°C° 0 mm 0 mps 563 mmHg 42%
    04:00 +10°C° 0 mm 1 mps 563 mmHg 43%
    05:00 +10°C° 0 mm 1 mps 563 mmHg 44%
    06:00 +11°C° 0 mm 1 mps 564 mmHg 40%
    07:00 +13°C° 0 mm 1 mps 565 mmHg 36%
    08:00 +15°C° 0 mm 1 mps 566 mmHg 31%
    09:00 +18°C° 0 mm 1 mps 567 mmHg 26%
    10:00 +19°C° 0 mm 2 mps 568 mmHg 22%
    11:00 +22°C° 0 mm 3 mps 569 mmHg 17%
    12:00 +22°C° 0 mm 3 mps 569 mmHg 17%
    13:00 +23°C° 0 mm 4 mps 568 mmHg 16%
    14:00 +25°C° 0 mm 4 mps 568 mmHg 16%
    15:00 +22°C° 0 mm 5 mps 567 mmHg 19%
    16:00 +21°C° 0 mm 5 mps 567 mmHg 22%
    17:00 +20°C° 0 mm 5 mps 566 mmHg 25%
    18:00 +18°C° 0 mm 4 mps 566 mmHg 28%
    19:00 +17°C° 0 mm 3 mps 566 mmHg 32%
    20:00 +15°C° 0 mm 2 mps 565 mmHg 36%
    21:00 +14°C° 0 mm 1 mps 565 mmHg 38%
    22:00 +14°C° 0 mm 1 mps 565 mmHg 40%
    23:00 +12°C° 0 mm 0 mps 565 mmHg 42%
    Show more